Location: Unspecified
(0.0000°N, 0.0000°E)
Time: 16:07:52
(UTC+00:00)

Vanguard 2 - Pass Details

Date: 13 December 2018
Orbit: 553 x 2939 km, 32.9° (Epoch: 21 March)

Event Time Altitude Azimuth Distance (km) Brightness Sun altitude
Rises 16:44:55 0° 245° (WSW) 3,154 12.6 15.9°
Reaches altitude 10° 16:47:39 10° 251° (WSW) 2,035 12.5 15.3°
Maximum altitude 16:51:51 44° 324° (NW) 780 7.9 14.3°
Drops below altitude 10° 16:55:37 10° 38° (NE) 1,820 9.0 13.5°
Sets 16:57:56 0° 45° (NE) 2,775 9.8 12.9°
